Orbital Elements at Epoch 2459200.5 (2020-Dec-17.0) TDB
Reference: JPL 19 (heliocentric ecliptic J2000)
Element | Value | Uncertainty (1-sigma) | Units |
e | .1762927868172252 | 2.9485e-08 | |
a | 2.3766037907581 | 7.7155e-09 | au |
q | 1.957625685324973 | 7.2986e-08 | au |
i | .4469433687361815 | 3.7874e-06 | deg |
node | 292.8625855222615 | 0.0004786 | deg |
peri | 125.1479402071812 | 0.00047884 | deg |
M | 327.8769075020539 | 1.401e-05 | deg |
tp | 2459319.912132068078 (2021-Apr-15.41213207) | 5.2286e-05 | TDB |
period | 1338.238762262898 3.66 | 6.5167e-06 1.784e-08 | d yr |
n | .26901029184901 | 1.31e-09 | deg/d |
Q | 2.795581896191227 | 9.0756e-09 | au |
|
| | Orbit Determination Parameters
Additional Information
|